TimeEDT,TemperatureF,Dew PointF,Humidity,Sea Level PressureIn,VisibilityMPH,Wind Direction,Wind SpeedMPH,Gust SpeedMPH,PrecipitationIn,Events,Conditions,WindDirDegrees,DateUTC
12:15 AM,51.3,38.7,62,30.23,10.0,Calm,Calm,-,N/A,,Overcast,0,2013-10-30 04:15:00
12:35 AM,51.6,38.3,60,30.22,10.0,Calm,Calm,-,N/A,,Overcast,0,2013-10-30 04:35:00
12:55 AM,51.8,38.7,61,30.21,10.0,Calm,Calm,-,N/A,,Overcast,0,2013-10-30 04:55:00
1:15 AM,50.7,40.3,67,30.20,10.0,ESE,3.5,-,N/A,,Overcast,110,2013-10-30 05:15:00
1:35 AM,50.5,40.5,68,30.20,10.0,East,3.5,-,N/A,,Overcast,90,2013-10-30 05:35:00
1:55 AM,50.7,39.9,67,30.20,10.0,Calm,Calm,-,N/A,Rain,Light Rain,0,2013-10-30 05:55:00
2:15 AM,50.4,41.2,71,30.20,10.0,Calm,Calm,-,N/A,,Overcast,0,2013-10-30 06:15:00
2:35 AM,50.2,41.5,72,30.20,10.0,ENE,3.5,-,N/A,Rain,Light Rain,60,2013-10-30 06:35:00
2:55 AM,49.8,42.4,76,30.19,10.0,NE,3.5,-,N/A,Rain,Light Rain,50,2013-10-30 06:55:00
3:15 AM,49.1,42.6,78,30.19,10.0,Calm,Calm,-,N/A,,Overcast,0,2013-10-30 07:15:00
3:35 AM,49.5,42.4,77,30.18,10.0,Calm,Calm,-,N/A,,Overcast,0,2013-10-30 07:35:00
3:55 AM,49.1,43.0,79,30.17,10.0,Calm,Calm,-,N/A,,Overcast,0,2013-10-30 07:55:00
4:15 AM,49.1,43.0,79,30.16,10.0,SSE,3.5,-,N/A,,Overcast,160,2013-10-30 08:15:00
4:35 AM,49.1,43.3,81,30.16,10.0,SSE,4.6,-,N/A,,Overcast,160,2013-10-30 08:35:00
4:55 AM,49.6,43.0,78,30.16,10.0,Calm,Calm,-,N/A,,Overcast,0,2013-10-30 08:55:00
5:15 AM,50.0,43.2,77,30.15,10.0,South,6.9,-,N/A,Rain,Rain,170,2013-10-30 09:15:00
5:35 AM,49.6,43.7,80,30.15,10.0,South,3.5,-,N/A,,Overcast,180,2013-10-30 09:35:00
5:55 AM,49.8,43.9,80,30.15,10.0,South,4.6,-,N/A,,Overcast,190,2013-10-30 09:55:00
6:15 AM,50.2,44.6,81,30.16,10.0,Calm,Calm,-,N/A,,Overcast,0,2013-10-30 10:15:00
6:35 AM,50.0,45.0,83,30.16,10.0,Calm,Calm,-,N/A,Rain,Light Rain,0,2013-10-30 10:35:00
6:55 AM,49.8,45.0,83,30.17,10.0,Calm,Calm,-,N/A,,Overcast,0,2013-10-30 10:55:00
7:15 AM,50.0,45.3,84,30.17,10.0,Calm,Calm,-,N/A,,Overcast,0,2013-10-30 11:15:00
7:35 AM,50.2,45.5,84,30.17,10.0,Calm,Calm,-,N/A,,Overcast,0,2013-10-30 11:35:00
7:55 AM,50.0,45.7,85,30.17,7.0,NE,3.5,-,N/A,,Overcast,50,2013-10-30 11:55:00
8:15 AM,50.0,45.3,84,30.17,10.0,NE,4.6,-,N/A,,Overcast,40,2013-10-30 12:15:00
8:35 AM,50.4,44.6,81,30.17,10.0,NE,4.6,-,N/A,,Overcast,40,2013-10-30 12:35:00
8:55 AM,50.9,44.8,80,30.18,10.0,NE,4.6,-,N/A,,Overcast,50,2013-10-30 12:55:00
9:15 AM,51.3,44.8,78,30.19,10.0,ENE,3.5,-,N/A,,Overcast,60,2013-10-30 13:15:00
9:35 AM,51.8,45.0,77,30.19,10.0,Calm,Calm,-,N/A,,Overcast,0,2013-10-30 13:35:00
9:55 AM,52.5,45.5,77,30.20,10.0,Calm,Calm,-,N/A,,Overcast,0,2013-10-30 13:55:00
10:15 AM,53.2,45.9,76,30.20,10.0,NE,4.6,-,N/A,,Overcast,50,2013-10-30 14:15:00
10:35 AM,54.0,46.2,75,30.20,10.0,NE,5.8,-,N/A,,Overcast,50,2013-10-30 14:35:00
10:55 AM,55.0,46.4,73,30.20,10.0,ENE,3.5,-,N/A,,Overcast,70,2013-10-30 14:55:00
11:15 AM,56.3,47.5,72,30.19,10.0,Calm,Calm,-,N/A,,Overcast,0,2013-10-30 15:15:00
11:35 AM,58.1,49.1,72,30.19,10.0,Calm,Calm,-,N/A,,Overcast,0,2013-10-30 15:35:00
11:55 AM,59.9,50.4,71,30.18,10.0,South,3.5,-,N/A,,Overcast,190,2013-10-30 15:55:00
12:15 PM,60.4,51.4,72,30.18,10.0,SSW,3.5,-,N/A,,Overcast,210,2013-10-30 16:15:00
12:35 PM,61.2,52.0,72,30.18,10.0,Calm,Calm,-,N/A,,Overcast,0,2013-10-30 16:35:00
12:55 PM,62.2,53.1,72,30.16,10.0,South,4.6,-,N/A,,Overcast,190,2013-10-30 16:55:00
1:15 PM,62.4,53.4,72,30.16,10.0,South,5.8,-,N/A,,Overcast,190,2013-10-30 17:15:00
1:35 PM,62.4,53.6,73,30.15,10.0,South,5.8,-,N/A,,Overcast,180,2013-10-30 17:35:00
2:35 PM,63.9,53.6,69,30.11,10.0,SSE,3.5,-,N/A,,Overcast,150,2013-10-30 18:35:00
2:55 PM,63.9,53.4,69,30.11,10.0,South,6.9,-,N/A,,Overcast,170,2013-10-30 18:55:00
3:15 PM,63.7,54.0,71,30.10,10.0,South,4.6,-,N/A,,Overcast,170,2013-10-30 19:15:00
3:35 PM,64.4,54.0,69,30.09,10.0,SSE,4.6,-,N/A,,Overcast,150,2013-10-30 19:35:00
3:55 PM,64.2,54.0,69,30.11,10.0,South,5.8,-,N/A,,Overcast,170,2013-10-30 19:55:00
4:15 PM,63.9,54.1,71,30.11,10.0,South,8.1,-,N/A,,Overcast,180,2013-10-30 20:15:00
4:35 PM,63.5,54.1,72,30.11,10.0,South,5.8,-,N/A,,Overcast,170,2013-10-30 20:35:00
4:55 PM,63.1,54.0,72,30.11,10.0,South,6.9,-,N/A,,Overcast,170,2013-10-30 20:55:00
5:15 PM,63.3,54.1,72,30.10,10.0,South,5.8,-,N/A,,Overcast,170,2013-10-30 21:15:00
5:35 PM,63.1,54.3,73,30.11,10.0,South,4.6,-,N/A,,Overcast,170,2013-10-30 21:35:00
5:55 PM,63.0,54.5,74,30.10,10.0,SE,3.5,-,N/A,,Overcast,130,2013-10-30 21:55:00
6:15 PM,62.8,54.5,74,30.09,10.0,SSE,3.5,-,N/A,,Overcast,150,2013-10-30 22:15:00
6:35 PM,62.4,54.5,75,30.10,10.0,South,4.6,-,N/A,,Overcast,170,2013-10-30 22:35:00
6:55 PM,62.1,54.7,77,30.09,10.0,SSE,3.5,-,N/A,,Overcast,160,2013-10-30 22:55:00
7:15 PM,62.1,54.7,77,30.09,10.0,SSE,3.5,-,N/A,,Overcast,160,2013-10-30 23:15:00
8:55 PM,61.7,55.4,80,30.10,10.0,SSE,4.6,-,N/A,,Overcast,150,2013-10-31 00:55:00
9:15 PM,61.7,55.6,80,30.09,10.0,SE,4.6,-,N/A,,Overcast,140,2013-10-31 01:15:00
9:35 PM,61.3,55.4,81,30.08,10.0,SE,4.6,-,N/A,,Overcast,130,2013-10-31 01:35:00
9:55 PM,61.3,55.4,81,30.08,10.0,SE,5.8,-,N/A,,Overcast,140,2013-10-31 01:55:00
10:15 PM,61.3,55.6,81,30.07,10.0,SE,6.9,-,N/A,,Overcast,130,2013-10-31 02:15:00
10:35 PM,61.5,55.9,82,30.07,5.0,SSE,5.8,-,N/A,,Haze,150,2013-10-31 02:35:00
10:55 PM,61.3,56.5,84,30.06,3.0,SE,8.1,-,N/A,,Light Drizzle,140,2013-10-31 02:55:00
11:15 PM,61.2,57.0,86,30.06,5.0,SE,4.6,-,N/A,,Overcast,130,2013-10-31 03:15:00
11:35 PM,61.2,57.2,87,30.05,5.0,SSE,3.5,-,N/A,,Overcast,150,2013-10-31 03:35:00
11:55 PM,61.0,57.0,87,30.03,5.0,SSE,4.6,-,N/A,,Overcast,150,2013-10-31 03:55:00